• In Germany
  • List of Countries
  • For 7 days
  • Water Temperature
  • Satellite Maps
  • Weather Map
  • Weather Widgets
  • user-avatar
    Login

    Hourly Weather Córdoba

    Today, 24 April, Tuesday

    Time Temperature Precipitation Wind Pressure Humidity
    00:00 +21°C° 0.1 mm 1 mps 726 mmHg 91%
    01:00 +21°C° 0.1 mm 1 mps 726 mmHg 92%
    02:00 +21°C° 0 mm 1 mps 726 mmHg 91%
    03:00 +21°C° 0.1 mm 1 mps 726 mmHg 92%
    04:00 +21°C° 0.1 mm 1 mps 726 mmHg 92%
    05:00 +21°C° 0.1 mm 1 mps 726 mmHg 93%
    06:00 +21°C° 0.3 mm 1 mps 726 mmHg 93%
    07:00 +20°C° 0.3 mm 2 mps 726 mmHg 94%
    08:00 +20°C° 0 mm 1 mps 726 mmHg 94%
    09:00 +20°C° 0.4 mm 2 mps 726 mmHg 92%
    10:00 +20°C° 0.4 mm 2 mps 726 mmHg 91%
    11:00 +20°C° 0.4 mm 2 mps 726 mmHg 90%
    12:00 +21°C° 0.3 mm 2 mps 726 mmHg 88%
    13:00 +21°C° 0.3 mm 2 mps 725 mmHg 87%
    14:00 +21°C° 0.3 mm 2 mps 725 mmHg 86%
    15:00 +23°C° 0 mm 2 mps 725 mmHg 86%
    16:00 +23°C° 0 mm 2 mps 725 mmHg 87%
    17:00 +23°C° 0 mm 2 mps 724 mmHg 87%
    18:00 +21°C° 0 mm 2 mps 724 mmHg 90%
    19:00 +22°C° 0 mm 1 mps 725 mmHg 93%
    20:00 +21°C° 0 mm 1 mps 725 mmHg 95%
    21:00 +21°C° 0.2 mm 1 mps 725 mmHg 95%
    22:00 +21°C° 0.2 mm 1 mps 725 mmHg 95%
    23:00 +22°C° 0.2 mm 1 mps 726 mmHg 95%

    Tomorrow, 25 April, Wednesday

    Time Temperature Precipitation Wind Pressure Humidity
    00:00 +22°C° 0.2 mm 1 mps 726 mmHg 95%
    01:00 +21°C° 0.2 mm 1 mps 725 mmHg 96%
    02:00 +21°C° 0.2 mm 1 mps 725 mmHg 96%
    03:00 +21°C° 0.1 mm 1 mps 725 mmHg 97%
    04:00 +21°C° 0.1 mm 1 mps 725 mmHg 97%
    05:00 +21°C° 0.1 mm 1 mps 725 mmHg 97%
    06:00 +21°C° 0.1 mm 1 mps 725 mmHg 96%
    07:00 +22°C° 0.1 mm 1 mps 726 mmHg 95%
    08:00 +21°C° 0.1 mm 2 mps 726 mmHg 95%
    09:00 +21°C° 0.1 mm 2 mps 726 mmHg 92%
    10:00 +23°C° 0.1 mm 2 mps 726 mmHg 90%
    11:00 +23°C° 0.1 mm 2 mps 726 mmHg 87%
    12:00 +24°C° 0.1 mm 2 mps 726 mmHg 87%
    13:00 +24°C° 0.1 mm 2 mps 725 mmHg 86%
    14:00 +24°C° 0.1 mm 2 mps 725 mmHg 85%
    15:00 +24°C° 0 mm 2 mps 725 mmHg 85%
    16:00 +24°C° 0 mm 2 mps 724 mmHg 85%
    17:00 +24°C° 0 mm 2 mps 724 mmHg 85%
    18:00 +24°C° 0.1 mm 2 mps 724 mmHg 89%
    19:00 +23°C° 0.1 mm 2 mps 724 mmHg 92%
    20:00 +21°C° 0.1 mm 2 mps 724 mmHg 95%
    21:00 +21°C° 0.1 mm 2 mps 724 mmHg 95%
    22:00 +21°C° 0.1 mm 2 mps 724 mmHg 95%
    23:00 +21°C° 0.1 mm 2 mps 724 mmHg 95%

    Day after tomorrow, 26 April, Thursday

    Time Temperature Precipitation Wind Pressure Humidity
    00:00 +21°C° 0 mm 2 mps 724 mmHg 94%
    01:00 +21°C° 0 mm 2 mps 723 mmHg 93%
    02:00 +21°C° 0 mm 2 mps 723 mmHg 92%
    03:00 +21°C° 0 mm 2 mps 723 mmHg 92%
    04:00 +21°C° 0 mm 2 mps 722 mmHg 92%
    05:00 +21°C° 0 mm 2 mps 722 mmHg 93%
    06:00 +21°C° 0 mm 3 mps 722 mmHg 90%
    07:00 +22°C° 0 mm 3 mps 722 mmHg 88%
    08:00 +22°C° 0 mm 4 mps 722 mmHg 86%
    09:00 +25°C° 0.1 mm 5 mps 722 mmHg 76%
    10:00 +27°C° 0.1 mm 7 mps 722 mmHg 65%
    11:00 +29°C° 0.1 mm 8 mps 722 mmHg 55%
    12:00 +31°C° 0 mm 8 mps 721 mmHg 51%
    13:00 +32°C° 0 mm 9 mps 720 mmHg 47%
    14:00 +33°C° 0 mm 9 mps 720 mmHg 43%
    15:00 +32°C° 0 mm 8 mps 719 mmHg 45%
    16:00 +30°C° 0 mm 7 mps 719 mmHg 48%
    17:00 +30°C° 0 mm 6 mps 719 mmHg 50%
    18:00 +28°C° 0 mm 5 mps 719 mmHg 54%
    19:00 +27°C° 0 mm 4 mps 719 mmHg 58%
    20:00 +25°C° 0 mm 4 mps 719 mmHg 62%
    21:00 +25°C° 0 mm 3 mps 719 mmHg 62%
    22:00 +25°C° 0 mm 3 mps 719 mmHg 63%
    23:00 +24°C° 0 mm 3 mps 719 mmHg 63%

    27 April, Friday

    Time Temperature Precipitation Wind Pressure Humidity
    00:00 +24°C° 0 mm 3 mps 719 mmHg 64%
    01:00 +24°C° 0 mm 3 mps 719 mmHg 66%
    02:00 +23°C° 0 mm 2 mps 719 mmHg 67%
    03:00 +23°C° 0 mm 2 mps 719 mmHg 69%
    04:00 +23°C° 0 mm 2 mps 719 mmHg 70%
    05:00 +23°C° 0 mm 2 mps 719 mmHg 71%
    06:00 +23°C° 0 mm 1 mps 719 mmHg 70%
    07:00 +24°C° 0 mm 1 mps 720 mmHg 69%
    08:00 +24°C° 0 mm 1 mps 721 mmHg 67%
    09:00 +26°C° 0 mm 2 mps 721 mmHg 62%
    10:00 +28°C° 0 mm 3 mps 722 mmHg 56%
    11:00 +30°C° 0 mm 3 mps 722 mmHg 50%
    12:00 +28°C° 0.1 mm 4 mps 722 mmHg 55%
    13:00 +27°C° 0.1 mm 6 mps 722 mmHg 60%
    14:00 +24°C° 0.1 mm 7 mps 721 mmHg 65%
    15:00 +23°C° 0.2 mm 6 mps 722 mmHg 64%
    16:00 +22°C° 0.2 mm 6 mps 722 mmHg 63%
    17:00 +21°C° 0.2 mm 6 mps 722 mmHg 62%
    18:00 +19°C° 0.2 mm 5 mps 723 mmHg 62%
    19:00 +17°C° 0.2 mm 5 mps 723 mmHg 62%
    20:00 +17°C° 0.2 mm 4 mps 724 mmHg 62%
    21:00 +17°C° 0.2 mm 4 mps 725 mmHg 61%
    22:00 +17°C° 0.2 mm 4 mps 725 mmHg 60%
    23:00 +17°C° 0.2 mm 4 mps 725 mmHg 60%

    28 April, Saturday

    Time Temperature Precipitation Wind Pressure Humidity
    00:00 +17°C° 0 mm 3 mps 725 mmHg 59%
    01:00 +16°C° 0 mm 3 mps 725 mmHg 59%
    02:00 +16°C° 0 mm 3 mps 725 mmHg 58%
    03:00 +16°C° 0 mm 2 mps 725 mmHg 58%
    04:00 +16°C° 0 mm 2 mps 725 mmHg 58%
    05:00 +16°C° 0 mm 2 mps 725 mmHg 59%
    06:00 +16°C° 0 mm 2 mps 725 mmHg 59%
    07:00 +17°C° 0 mm 2 mps 725 mmHg 59%
    08:00 +17°C° 0 mm 2 mps 725 mmHg 59%
    09:00 +18°C° 0 mm 2 mps 726 mmHg 60%
    10:00 +19°C° 0 mm 2 mps 726 mmHg 61%
    11:00 +19°C° 0 mm 2 mps 726 mmHg 62%
    12:00 +19°C° 0 mm 2 mps 725 mmHg 64%
    13:00 +20°C° 0 mm 2 mps 725 mmHg 65%
    14:00 +20°C° 0 mm 2 mps 724 mmHg 67%
    15:00 +20°C° 0 mm 2 mps 724 mmHg 69%
    16:00 +20°C° 0 mm 2 mps 724 mmHg 71%
    17:00 +20°C° 0 mm 2 mps 723 mmHg 73%
    18:00 +19°C° 0 mm 2 mps 724 mmHg 77%
    19:00 +19°C° 0 mm 1 mps 724 mmHg 81%
    20:00 +18°C° 0 mm 1 mps 724 mmHg 85%
    21:00 +19°C° 0.1 mm 1 mps 724 mmHg 85%
    22:00 +19°C° 0.1 mm 1 mps 724 mmHg 86%
    23:00 +19°C° 0.1 mm 1 mps 724 mmHg 86%

    29 April, Sunday

    Time Temperature Precipitation Wind Pressure Humidity
    00:00 +19°C° 0.2 mm 1 mps 723 mmHg 87%
    01:00 +19°C° 0.2 mm 1 mps 723 mmHg 88%
    02:00 +19°C° 0.2 mm 1 mps 723 mmHg 89%
    03:00 +20°C° 0.3 mm 1 mps 722 mmHg 90%
    04:00 +20°C° 0.3 mm 1 mps 722 mmHg 91%
    05:00 +20°C° 0.3 mm 1 mps 721 mmHg 93%
    06:00 +20°C° 0.2 mm 1 mps 721 mmHg 92%
    07:00 +20°C° 0.2 mm 1 mps 721 mmHg 92%
    08:00 +21°C° 0.2 mm 1 mps 721 mmHg 92%
    09:00 +22°C° 0.1 mm 1 mps 721 mmHg 88%
    10:00 +23°C° 0.1 mm 2 mps 721 mmHg 85%
    11:00 +24°C° 0.1 mm 2 mps 721 mmHg 82%
    12:00 +25°C° 0 mm 3 mps 720 mmHg 78%
    13:00 +26°C° 0 mm 3 mps 719 mmHg 75%
    14:00 +27°C° 0 mm 4 mps 719 mmHg 71%
    15:00 +27°C° 0.1 mm 3 mps 719 mmHg 75%
    16:00 +26°C° 0.1 mm 3 mps 719 mmHg 78%
    17:00 +26°C° 0.1 mm 2 mps 718 mmHg 81%
    18:00 +25°C° 0.2 mm 2 mps 719 mmHg 85%
    19:00 +24°C° 0.2 mm 1 mps 719 mmHg 89%
    20:00 +23°C° 0.2 mm 1 mps 719 mmHg 93%
    21:00 +23°C° 0.6 mm 1 mps 719 mmHg 94%
    22:00 +23°C° 0.6 mm 2 mps 719 mmHg 94%
    23:00 +23°C° 0.6 mm 2 mps 719 mmHg 94%
    Show more